[[{"header":{"parameterUnit":"m.s-1","parameterCategory":1,"la1":30.2991,"la2":30.254,"lo1":-89.0895,"lo2":-89.0444,"dy":0.0017,"dx":0.0017,"nx":28,"ny":28,"refTime":"2025-12-18T03:00:00:Z","depth":0,"parameterNumber":2,"parameterNumberName":"U-component_of_WINDS"},"data":[0,0,0,0,0,0,0,0,0,0,0,0,0,0,0,0,0,0,0,0,0,0,0,0,0,0,0,0,0,0,0,0,0,0,0,0,0,0,0,0,0,0,0,0,0,0,0,0,0,0,0,0,0,0,0,0,0,0,-2.5926,-2.5925,0,-2.5842,-2.5842,-2.5841,-2.568,-2.5677,-2.5674,-2.5671,-2.559,-2.5591,-2.5592,0,0,0,0,0,0,0,0,0,0,0,0,0,-2.5951,-2.5951,-2.5926,-2.5925,-2.5924,-2.5843,-2.5841,-2.584,-2.5681,-2.5677,-2.5673,-2.567,-2.559,-2.5591,-2.5592,0,0,0,0,0,0,0,0,0,0,0,0,0,-2.5911,-2.5952,-2.5926,-2.5834,-2.5825,-2.5843,-2.5841,-2.584,-2.5682,-2.5677,-2.5672,-2.5668,-2.559,-2.5591,-2.5592,-2.5693,0,0,-2.5595,-2.5596,0,0,0,0,0,0,0,0,-2.5914,-2.5911,-2.5849,-2.5841,-2.5831,-2.5767,-2.582,-2.5791,-2.5683,-2.5737,-2.5671,-2.5666,-2.5653,-2.5649,-2.5644,-2.5689,-2.5686,-2.5596,-2.5596,-2.5597,-2.5597,0,0,0,0,0,0,0,-2.5917,-2.5913,-2.5893,-2.5848,-2.5837,-2.5799,-2.5788,-2.5814,-2.5722,-2.5731,-2.572,-2.5712,-2.5647,-2.5643,-2.5641,-2.5685,-2.5595,-2.5597,-2.5597,-2.5598,-2.5811,-2.5816,0,0,0,0,0,0,-2.5932,-2.5917,-2.5895,-2.589,-2.5861,-2.5802,-2.579,-2.5792,-2.5722,-2.5706,-2.5716,-2.5705,-2.5643,-2.5639,-2.5637,-2.5752,-2.5597,-2.5598,-2.5598,-2.5806,-2.5812,-2.5817,0,0,0,0,0,0,-2.5934,-2.5932,-2.5899,-2.59,-2.5893,-2.5807,-2.5811,-2.5793,-2.5788,-2.571,-2.5693,-2.5728,-2.5639,-2.5635,-2.568,-2.5747,-2.5598,-2.5599,-2.58,-2.5808,-2.5815,-2.5983,0,0,0,0,0,0,-2.5935,-2.5933,-2.597,-2.5902,-2.5894,-2.5943,-2.5814,-2.5795,-2.579,-2.5775,-2.5717,-2.5703,-2.5635,-2.568,-2.5682,-2.5746,-2.56,-2.5794,-2.5804,-2.5812,-2.5971,-2.5995,-2.6016,0,0,0,0,0,-2.5936,-2.6021,-2.5973,-2.5971,-2.5937,-2.5947,-2.5942,-2.5862,-2.5796,-2.5833,-2.5783,-2.5704,-2.5739,-2.5686,-2.5686,-2.5752,-2.5789,-2.5801,-2.5812,-2.5961,-2.599,-2.6015,0,0,0,0,0,0,-2.6101,-2.6011,-2.5956,-2.6021,-2.5993,-2.592,-2.5964,-2.5896,-2.5886,-2.5873,-2.5774,-2.5763,-2.5821,-2.579,-2.5733,-2.5847,-2.5752,-2.5764,-2.5865,-2.5892,-2.5914,-2.5921,-2.5601,0,0,0,0,0,-2.6144,-2.6158,-2.6079,-2.6145,-2.6133,-2.6052,-2.6053,-2.5993,-2.5961,-2.5948,-2.5901,-2.5873,-2.5878,-2.5883,-2.5883,-2.5965,-2.5951,-2.6011,-2.6033,-2.6052,-2.6064,-2.6107,-2.6133,-2.5854,-2.5854,-2.5854,0,0,-2.6235,-2.6187,-2.6202,-2.6176,-2.6147,-2.6166,-2.6043,-2.6067,-2.608,-2.5952,-2.5992,-2.5956,-2.5919,-2.5984,-2.601,-2.596,-2.6138,-2.6066,-2.6082,-2.6084,-2.6121,-2.6148,-2.6171,-2.5862,-2.586,-2.5859,0,0,-2.6409,-2.6374,-2.6425,-2.6399,-2.6356,-2.6301,-2.6314,-2.6251,-2.6223,-2.626,-2.6165,-2.618,-2.619,-2.6167,-2.6157,-2.6324,-2.6253,-2.6327,-2.6445,-2.6488,-2.651,-2.6529,-2.659,-2.6613,-2.6339,-2.6339,-2.634,0,-2.6528,-2.655,-2.6461,-2.6491,-2.6483,-2.6367,-2.6419,-2.6398,-2.6358,-2.6356,-2.6301,-2.6311,-2.6277,-2.6336,-2.6377,-2.6372,-2.6385,-2.6334,-2.6513,-2.6532,-2.6548,-2.6605,-2.6629,-2.6349,-2.6348,-2.6347,-2.6346,0,-2.6699,-2.6716,-2.6762,-2.6726,-2.6723,-2.6764,-2.6683,-2.6691,-2.6632,-2.6583,-2.6624,-2.658,-2.657,-2.6579,-2.6522,-2.663,-2.66,-2.6531,-2.6433,-2.6586,-2.6638,-2.6659,-2.6362,-2.6359,-2.6356,-2.6354,0,0,-2.6975,-2.6888,-2.6907,-2.689,-2.6834,-2.6846,-2.6883,-2.6871,-2.6881,-2.6858,-2.6887,-2.6898,-2.6833,-2.6822,-2.6762,-2.6799,-2.6936,-2.6724,-2.6722,-2.6767,-2.7055,-2.7109,-2.7136,-2.6888,-2.6891,-2.6894,-2.7058,0,-2.7139,-2.7195,-2.7116,-2.7191,-2.7206,-2.7096,-2.7128,-2.7099,-2.7055,-2.7063,-2.7014,-2.7024,-2.6937,-2.693,-2.6962,-2.6913,-2.6993,-2.69,-2.6916,-2.6918,-2.6931,-2.7162,-2.7219,-2.7376,-2.7078,-2.7081,-2.7084,0,-2.7337,-2.7323,-2.7399,-2.7339,-2.7343,-2.7373,-2.7357,-2.7365,-2.733,-2.7295,-2.7283,-2.7211,-2.7244,-2.7149,-2.7194,-2.7133,-2.7135,-2.7112,-2.7116,-2.7116,-2.7011,-2.717,-2.7424,-2.7449,-2.7115,-2.7112,-2.711,0,-2.7533,-2.7533,-2.7578,-2.7567,-2.7498,-2.7522,-2.7495,-2.7455,-2.7453,-2.7439,-2.7437,-2.7428,-2.7424,-2.7419,-2.7347,-2.7284,-2.7402,-2.73,-2.7376,-2.7378,-2.7407,-2.7406,-2.7667,-2.7406,-2.7406,-2.7405,-2.7405,0,-2.7725,-2.7777,-2.7665,-2.7694,-2.7749,-2.7658,-2.7715,-2.7677,-2.7642,-2.7663,-2.7567,-2.7588,-2.749,-2.7502,-2.7445,-2.7493,-2.7491,-2.7465,-2.745,-2.7475,-2.7479,-2.7476,-2.7464,-2.7411,-2.741,-2.7409,-2.7408,0,-2.7954,-2.7881,-2.7924,-2.7855,-2.7839,-2.7883,-2.7825,-2.785,-2.7799,-2.7826,-2.7827,-2.7749,-2.7757,-2.7684,-2.7679,-2.7641,-2.7716,-2.7681,-2.7728,-2.7717,-2.7798,-2.7792,-2.8067,-2.8099,-2.7817,-2.782,-2.7822,0,-2.8082,-2.8119,-2.8054,-2.806,-2.8037,-2.8048,-2.8046,-2.7958,-2.796,-2.7923,-2.7953,-2.7953,-2.7949,-2.7968,-2.7912,-2.7908,-2.7873,-2.7969,-2.7872,-2.7896,-2.7876,-2.7876,-2.788,-2.799,-2.7994,-2.7997,-2.7999,0,-2.8317,-2.828,-2.8279,-2.8267,-2.8267,-2.8253,-2.8233,-2.8244,-2.8149,-2.8156,-2.8163,-2.816,-2.8154,-2.8157,-2.8142,-2.8115,-2.8043,-2.803,-2.8048,-2.8074,-2.8101,-2.8089,-2.7785,-2.8024,-2.8022,-2.802,-2.8019,-2.8018,-2.85,-2.8528,-2.8487,-2.8491,-2.8466,-2.845,-2.847,-2.8422,-2.8426,-2.8414,-2.8362,-2.8379,-2.8343,-2.8315,-2.8296,-2.8309,-2.8262,-2.8287,-2.8294,-2.8302,-2.8317,-2.8097,-2.8305,-2.8304,-2.8304,-2.8303,-2.8302,0,-2.8732,-2.87,-2.8704,-2.8679,-2.8682,-2.8611,-2.8586,-2.8594,-2.861,-2.8582,-2.858,-2.8589,-2.8591,-2.8535,-2.853,-2.8551,-2.8518,-2.8553,-2.8552,-2.8547,-2.8358,-2.8344,-2.858,-2.858,-2.858,-2.858,-2.858,-2.858,-2.8853,-2.8898,-2.8855,-2.8887,-2.8855,-2.887,-2.8862,-2.8847,-2.8825,-2.8839,-2.8839,-2.8802,-2.8764,-2.8755,-2.8755,-2.8738,-2.8742,-2.8789,-2.8762,-2.8587,-2.856,-2.8535,-2.8521,-2.879,-2.879,-2.8949,-2.8951,-2.8952]},{"header":{"parameterUnit":"m.s-1","parameterCategory":1,"la1":30.2991,"la2":30.254,"lo1":-89.0895,"lo2":-89.0444,"dy":0.0017,"dx":0.0017,"nx":28,"ny":28,"refTime":"2025-12-18T03:00:00:Z","depth":0,"parameterNumber":3,"parameterNumberName":"V-component_of_WINDS"},"data":[0,0,0,0,0,0,0,0,0,0,0,0,0,0,0,0,0,0,0,0,0,0,0,0,0,0,0,0,0,0,0,0,0,0,0,0,0,0,0,0,0,0,0,0,0,0,0,0,0,0,0,0,0,0,0,0,0,0,-1.0048,-1.0047,0,-0.9993,-0.9992,-0.9992,-0.9953,-0.9952,-0.9952,-0.9952,-0.9893,-0.9892,-0.9891,0,0,0,0,0,0,0,0,0,0,0,0,0,-1.0117,-1.0116,-1.0048,-1.0047,-1.0047,-0.9993,-0.9992,-0.9992,-0.9953,-0.9952,-0.9952,-0.9951,-0.9894,-0.9892,-0.9891,0,0,0,0,0,0,0,0,0,0,0,0,0,-1.0077,-1.0115,-1.0048,-1.0021,-1.0018,-0.9993,-0.9992,-0.9991,-0.9953,-0.9952,-0.9952,-0.9951,-0.9894,-0.9892,-0.989,-0.9888,0,0,-0.9885,-0.9884,0,0,0,0,0,0,0,0,-1.0079,-1.0074,-1.0026,-1.0023,-1.0019,-0.9979,-0.9995,-0.9957,-0.9953,-0.9977,-0.9952,-0.9951,-0.9922,-0.9918,-0.9908,-0.9885,-0.9883,-0.9884,-0.9883,-0.9882,-0.9882,0,0,0,0,0,0,0,-1.0082,-1.0076,-1.0026,-1.0025,-1.0021,-1.001,-1.0004,-0.9988,-0.9953,-0.9975,-0.9972,-0.9966,-0.992,-0.991,-0.9907,-0.9882,-0.9884,-0.9883,-0.9882,-0.9881,-0.9852,-0.9852,0,0,0,0,0,0,-1.0089,-1.0079,-1.0028,-1.0025,-1.0049,-1.001,-1.0003,-0.9992,-0.9953,-0.9947,-0.9967,-0.9965,-0.9914,-0.9909,-0.9905,-0.9898,-0.9882,-0.9881,-0.988,-0.9851,-0.9852,-0.9852,0,0,0,0,0,0,-1.0091,-1.0085,-1.003,-1.0051,-1.0043,-1.0009,-0.9998,-0.9992,-0.9982,-0.9947,-0.994,-0.9963,-0.9913,-0.9907,-0.9892,-0.9895,-0.988,-0.9878,-0.9851,-0.9851,-0.9852,-0.9885,0,0,0,0,0,0,-1.0093,-1.0086,-1.0085,-1.0051,-1.0042,-1.002,-0.9998,-0.9991,-0.9979,-0.9976,-0.9942,-0.9936,-0.9912,-0.9895,-0.989,-0.9892,-0.9877,-0.985,-0.9851,-0.9852,-0.9883,-0.9887,-0.9889,0,0,0,0,0,-1.0096,-1.0097,-1.0086,-1.008,-1.0041,-1.002,-1.0015,-0.9989,-0.9979,-0.9978,-0.9955,-0.9937,-0.9896,-0.9894,-0.9888,-0.989,-0.985,-0.9851,-0.9852,-0.9882,-0.9886,-0.9889,0,0,0,0,0,0,-1.0132,-1.0092,-1.0079,-1.0069,-1.0048,-1.0013,-1.0011,-0.9994,-0.9975,-0.9972,-0.994,-0.9933,-0.9921,-0.9904,-0.9902,-0.9884,-0.9871,-0.987,-0.9896,-0.9899,-0.9902,-0.9906,-0.9875,0,0,0,0,0,-1.0139,-1.0126,-1.0091,-1.0086,-1.0076,-1.0046,-1.0035,-1.0017,-0.9994,-0.9985,-0.9961,-0.9938,-0.992,-0.9909,-0.989,-0.9881,-0.9872,-0.9879,-0.9882,-0.9885,-0.9884,-0.9876,-0.9879,-0.9855,-0.9855,-0.9855,0,0,-1.0153,-1.013,-1.0123,-1.0093,-1.0074,-1.0061,-1.0038,-1.0025,-1.0014,-0.9982,-0.9966,-0.9948,-0.992,-0.9908,-0.9901,-0.9893,-0.9889,-0.9886,-0.9888,-0.9886,-0.9878,-0.988,-0.9882,-0.9855,-0.9855,-0.9855,0,0,-1.0171,-1.0153,-1.0146,-1.0128,-1.01,-1.008,-1.0078,-1.0045,-1.0032,-1.0015,-0.9991,-0.9977,-0.9947,-0.9928,-0.9914,-0.9924,-0.9906,-0.9919,-0.9934,-0.9927,-0.9929,-0.993,-0.9932,-0.9934,-0.9919,-0.9919,-0.9919,0,-1.0192,-1.0171,-1.0144,-1.0132,-1.0119,-1.009,-1.0081,-1.0065,-1.0033,-1.0024,-1.0016,-0.9976,-0.9956,-0.9938,-0.994,-0.993,-0.9926,-0.9923,-0.9931,-0.9932,-0.9933,-0.9934,-0.9936,-0.9921,-0.9921,-0.9921,-0.992,0,-1.0197,-1.0183,-1.018,-1.015,-1.0136,-1.0126,-1.0097,-1.0086,-1.0069,-1.0049,-1.0031,-1.0006,-0.9981,-0.9975,-0.9959,-0.9954,-0.995,-0.9937,-0.9922,-0.9937,-0.9938,-0.9939,-0.9923,-0.9923,-0.9922,-0.9922,0,0,-1.0237,-1.0191,-1.0191,-1.0176,-1.0143,-1.0131,-1.0119,-1.0095,-1.0086,-1.0064,-1.0052,-1.0027,-1.0014,-0.9999,-0.9979,-0.9973,-0.9981,-0.996,-0.9959,-0.9964,-0.9973,-0.9982,-0.9983,-0.9969,-0.9969,-0.9969,-0.9974,0,-1.0249,-1.0227,-1.0202,-1.0187,-1.0173,-1.0145,-1.0134,-1.0112,-1.0093,-1.0077,-1.0055,-1.0037,-1.0022,-1.0012,-1.0005,-0.9982,-0.9982,-0.9981,-0.9956,-0.9955,-0.9963,-0.9984,-0.9994,-1.0001,-0.9975,-0.9975,-0.9975,0,-1.026,-1.024,-1.0225,-1.0192,-1.0185,-1.0176,-1.0151,-1.0137,-1.0111,-1.0097,-1.0079,-1.0059,-1.0043,-1.0031,-1.0008,-1.0008,-0.9996,-0.9983,-0.9982,-0.9978,-0.9966,-0.9979,-1.0003,-1.0003,-0.9976,-0.9975,-0.9975,0,-1.0289,-1.0258,-1.0245,-1.0233,-1.0195,-1.0189,-1.0173,-1.0146,-1.0133,-1.0111,-1.0102,-1.0078,-1.0065,-1.0047,-1.002,-1.0014,-0.9999,-0.9985,-0.9986,-0.9987,-0.9984,-0.9984,-1.0004,-0.9978,-0.9978,-0.9978,-0.9978,0,-1.0305,-1.0296,-1.0257,-1.0248,-1.0237,-1.0208,-1.0198,-1.0179,-1.0155,-1.0141,-1.0116,-1.0103,-1.0069,-1.0051,-1.003,-1.0013,-1.0008,-0.9995,-0.999,-0.9997,-0.9999,-0.9988,-0.9987,-0.9978,-0.9978,-0.9978,-0.9978,0,-1.0335,-1.0309,-1.0291,-1.0257,-1.0248,-1.0241,-1.021,-1.02,-1.0179,-1.0162,-1.0157,-1.0123,-1.0102,-1.0073,-1.0043,-1.0028,-1.0014,-1.0005,-1.0023,-1.0019,-1.0021,-1.0021,-1.0035,-1.0034,-1.001,-1.001,-1.001,0,-1.0346,-1.0339,-1.0303,-1.0292,-1.0277,-1.026,-1.0246,-1.0217,-1.0204,-1.0173,-1.0166,-1.0143,-1.0123,-1.0089,-1.0062,-1.0038,-1.0028,-1.0034,-1.0024,-1.0031,-1.0026,-1.0027,-1.0025,-1.0037,-1.0037,-1.0037,-1.0038,0,-1.0368,-1.0356,-1.0337,-1.0314,-1.0299,-1.0279,-1.0258,-1.025,-1.0216,-1.0202,-1.018,-1.0165,-1.0133,-1.011,-1.0082,-1.0064,-1.0045,-1.0041,-1.004,-1.0047,-1.0057,-1.005,-1.0028,-1.0041,-1.004,-1.004,-1.004,-1.004,-1.0388,-1.038,-1.0353,-1.0334,-1.0315,-1.0295,-1.0284,-1.0262,-1.0243,-1.0216,-1.0199,-1.0177,-1.015,-1.0111,-1.0093,-1.0075,-1.0067,-1.0066,-1.0065,-1.0065,-1.0067,-1.0061,-1.007,-1.007,-1.007,-1.007,-1.007,0,-1.0408,-1.039,-1.0372,-1.0343,-1.0327,-1.0311,-1.0287,-1.0274,-1.0256,-1.0232,-1.0213,-1.0187,-1.0163,-1.0134,-1.0108,-1.0099,-1.009,-1.0093,-1.0093,-1.0089,-1.0076,-1.0079,-1.0102,-1.0102,-1.0102,-1.0102,-1.0102,-1.0102,-1.0417,-1.0401,-1.0385,-1.0359,-1.034,-1.032,-1.0307,-1.0288,-1.0269,-1.0241,-1.0222,-1.0204,-1.0177,-1.0149,-1.0127,-1.0118,-1.011,-1.0116,-1.0105,-1.0093,-1.009,-1.0087,-1.009,-1.0115,-1.0115,-1.0119,-1.0119,-1.0119]}]]